Buffalo, NY

9:03 AM EST on December 11, 2016 (GMT -0500)
Buffalo Niagara International

Weather History for KBUF - July, 2013

Change the Weather History Date:

Wednesday, July 10, 2013

  Actual Average Record
Temperature  
Mean Temperature 76 °F 71 °F  
Max Temperature 82 °F 80 °F 95 °F (1988)
Min Temperature 69 °F 62 °F 50 °F (1962)
Degree Days  
Heating Degree Days 0 0  
Month to date heating degree days 0 2  
Since 1 June heating degree days 64 66  
Since 1 July heating degree days 0 2  
Cooling Degree Days 11 6  
Month to date cooling degree days 94 60  
Year to date cooling degree days 259 189  
Since 1 June cooling degree days 188 163  
Growing Degree Days 26 (Base 50)    
Moisture  
Dew Point 69 °F    
Average Humidity 81    
Maximum Humidity 93    
Minimum Humidity 68    
Precipitation  
Precipitation T in 0.09 in 1.34 in (1917)
Month to date precipitation 0.37 0.99  
Year to date precipitation 21.63 19.66  
Snow  
Snow 0.00 in 0.00 in 0.00 in ()
Month to date snowfall 0.0 0.0  
Since 1 June snowfall 0.0 0.0  
Since 1 July snowfall 0.0 0.0  
Snow Depth 0.00 in    
Sea Level Pressure  
Sea Level Pressure 29.82 in    
Wind  
Wind Speed 14 mph (SW)    
Max Wind Speed 25 mph    
Max Gust Speed 35 mph    
Visibility 9 miles    
Events Rain    
T = Trace of Precipitation, MM = Missing Value Source: NWS Daily Summary

Daily Weather History Graph

Daily Weather History Graph

Search for Another Location

Airport or City:

Trip Planner

Search our weather history database for the weather conditions in past years. The results will help you decide how hot, cold, wet, or windy it might be!

Date:

Astronomy

Jul. 10, 2013 Rise Set
Actual Time 5:45 AM EDT 8:54 PM EDT
Civil Twilight 5:11 AM EDT 9:28 PM EDT
Nautical Twilight 4:26 AM EDT 10:13 PM EDT
Astronomical Twilight 3:33 AM EDT 11:06 PM EDT
Moon 8:09 AM EDT (7/10) 9:57 PM EDT (7/10)
Length of Visible Light 16h 17m
Length of Day
15h 08m
Waxing Crescent, 5% of the Moon is Illuminated
Jul 10
Waxing Crescent
Jul 15
First Quarter
Jul 22
Full
Jul 29
Last Quarter
Aug 6
New

Hourly Weather History & Observations

Time (EDT) Temp. Heat Index Dew Point Humidity Pressure Visibility Wind Dir Wind Speed Gust Speed Precip Events Conditions
12:54 AM 71.1 °F - 70.0 °F 96% 29.89 in 3.0 mi SSW 4.6 mph - N/A   Mostly Cloudy
1:50 AM 71.6 °F - 69.8 °F 94% 29.88 in 1.8 mi SW 4.6 mph - N/A   Scattered Clouds
1:54 AM 71.1 °F - 69.1 °F 93% 29.87 in 1.8 mi SSW 4.6 mph - N/A   Scattered Clouds
2:21 AM 71.6 °F - 69.8 °F 94% 29.87 in 3.0 mi SSW 6.9 mph - N/A   Scattered Clouds
2:46 AM 71.6 °F - 69.8 °F 94% 29.87 in 5.0 mi SW 9.2 mph - N/A   Mostly Cloudy
2:54 AM 72.0 °F - 70.0 °F 93% 29.85 in 7.0 mi SW 9.2 mph - N/A   Mostly Cloudy
3:38 AM 73.4 °F - 69.8 °F 88% 29.86 in 10.0 mi WSW 9.2 mph - N/A   Mostly Cloudy
3:54 AM 73.0 °F - 70.0 °F 90% 29.84 in 10.0 mi SW 10.4 mph - N/A   Mostly Cloudy
4:54 AM 73.9 °F - 70.0 °F 87% 29.84 in 10.0 mi SW 10.4 mph - 0.00 in   Mostly Cloudy
5:54 AM 73.9 °F - 69.1 °F 85% 29.83 in 10.0 mi SW 10.4 mph - N/A   Mostly Cloudy
6:50 AM 73.4 °F - 69.8 °F 88% 29.83 in 10.0 mi SSW 11.5 mph - N/A   Overcast
6:54 AM 73.9 °F - 69.1 °F 85% 29.82 in 10.0 mi SW 12.7 mph - N/A   Overcast
7:54 AM 75.0 °F - 69.1 °F 82% 29.83 in 10.0 mi SW 13.8 mph 20.7 mph N/A   Overcast
8:54 AM 75.0 °F - 69.1 °F 82% 29.83 in 10.0 mi SW 13.8 mph 19.6 mph N/A   Overcast
9:17 AM 75.2 °F - 69.8 °F 83% 29.84 in 10.0 mi SW 12.7 mph 21.9 mph N/A   Mostly Cloudy
9:54 AM 75.9 °F - 69.1 °F 79% 29.82 in 10.0 mi SW 12.7 mph - N/A   Mostly Cloudy
10:15 AM 77.0 °F - 69.8 °F 78% 29.83 in 10.0 mi SW 17.3 mph 25.3 mph N/A   Overcast
10:54 AM 78.1 °F - 69.1 °F 74% 29.82 in 10.0 mi SW 17.3 mph 25.3 mph N/A   Mostly Cloudy
11:54 AM 77.0 °F - 70.0 °F 79% 29.81 in 10.0 mi SW 16.1 mph 24.2 mph N/A   Overcast
12:54 PM 77.0 °F - 71.1 °F 82% 29.80 in 10.0 mi SW 17.3 mph 25.3 mph N/A   Overcast
1:54 PM 78.1 °F - 72.0 °F 81% 29.79 in 9.0 mi WSW 21.9 mph 31.1 mph N/A   Overcast
2:54 PM 80.1 °F 84.2 °F 73.0 °F 79% 29.77 in 8.0 mi WSW 18.4 mph 27.6 mph N/A   Mostly Cloudy
3:23 PM 80.6 °F 85.4 °F 73.4 °F 79% 29.78 in 8.0 mi SW 17.3 mph 24.2 mph N/A   Scattered Clouds
3:54 PM 81.0 °F 85.8 °F 73.0 °F 77% 29.75 in 8.0 mi SW 17.3 mph 26.5 mph N/A   Mostly Cloudy
4:54 PM 81.0 °F 85.8 °F 73.0 °F 77% 29.74 in 9.0 mi WSW 12.7 mph - N/A   Mostly Cloudy
5:54 PM 79.0 °F - 71.1 °F 77% 29.76 in 8.0 mi SW 15.0 mph 23.0 mph N/A   Overcast
6:51 PM 77.0 °F - 71.6 °F 83% 29.76 in 7.0 mi SSW 15.0 mph 21.9 mph N/A   Overcast
6:54 PM 77.0 °F - 72.0 °F 84% 29.75 in 6.0 mi SW 20.7 mph 26.5 mph N/A   Haze
7:15 PM 75.2 °F - 69.8 °F 83% 29.77 in 10.0 mi SW 18.4 mph 26.5 mph N/A   Overcast
7:54 PM 73.9 °F - 64.9 °F 73% 29.78 in 10.0 mi SW 16.1 mph 26.5 mph N/A   Overcast
8:54 PM 73.0 °F - 64.9 °F 76% 29.79 in 10.0 mi SW 13.8 mph 20.7 mph N/A   Mostly Cloudy
9:54 PM 73.9 °F - 62.1 °F 66% 29.83 in 10.0 mi WSW 18.4 mph 26.5 mph N/A   Mostly Cloudy
10:48 PM 71.6 °F - 66.2 °F 83% 29.85 in 10.0 mi SW 17.3 mph 24.2 mph N/A   Overcast
10:54 PM 72.0 °F - 66.0 °F 81% 29.84 in 10.0 mi SW 15.0 mph 24.2 mph N/A   Overcast
11:27 PM 71.6 °F - 66.2 °F 83% 29.85 in 10.0 mi WSW 13.8 mph - 0.00 in Rain Light Rain
11:54 PM 71.1 °F - 61.0 °F 70% 29.85 in 10.0 mi NW 12.7 mph 19.6 mph 0.00 in Rain Light Rain